Location: Gajan
(43.0218°N, 1.1244°E)
Time: 06:17:18
(UTC+00:00)

SL-8 R/B - Pass Details

Date: 22 April 2021
Orbit: 656 x 667 km, 48.4° (Epoch: 07 May)

Event Time Altitude Azimuth Distance (km) Brightness Sun altitude
Rises 19:58:56 0° 294° (WNW) 3,006 9.0 -12.9°
Reaches altitude 10° 20:01:22 10° 288° (WNW) 2,090 7.6 -13.3°
Maximum altitude 20:05:57 44° 217° (SW) 919 4.4 -14.0°
Enters shadow 20:09:04 19° 153° (SSE) 1,575 5.1 -14.4°
